Location: Aulus
(42.7909°N, 1.3399°E)
Time: 17:42:31
(UTC+00:00)

Cosmos 1833 Rocket - Pass Details

Date: 19 May 2025
Orbit: 831 x 839 km, 71.0° (Epoch: 13 June)

Event Time Altitude Azimuth Distance (km) Brightness Sun altitude
Rises 20:19:41 0° 186° (S) 3,373 5.5 -10.6°
Reaches altitude 10° 20:22:10 10° 181° (S) 2,444 4.7 -11.0°
Maximum altitude 20:27:33 50° 108° (ESE) 1,065 2.9 -11.7°
Drops below altitude 10° 20:32:58 10° 35° (NE) 2,461 5.2 -12.4°
Sets 20:35:29 0° 30° (NNE) 3,400 6.0 -12.8°
